User: anonymous   Login
Location: Unspecified
(0.0000°N, 0.0000°E)
Time: 17:13:04
(UTC+00:00)
Language:

ISS - Orbit

View from above orbital plane
View from above orbital plane
View from above satellite
View from above satellite

Ground track
Ground track

The orbit data is extracted from the following two-line orbital elements,

1 25544U 98067A   16044.54429414  .00016717  00000-0  10270-3 0  9016
2 25544  51.6424 319.6140 0006341 107.2950 252.8897 15.54702407 25593
Epoch (UTC): 13 February 2016 13:03:47
Eccentricity: 0.0006341
inclination: 51.6424°
perigee height: 399 km
apogee height: 407 km
right ascension of ascending node: 319.6140°
argument of perigee: 107.2950°
revolutions per day: 15.54702407
mean anomaly at epoch: 252.8897°
orbit number at epoch: 2559

The dashed part of the orbit path shows where the satellite is in the earth's shadow,  

DLR